Location: Cactus School
(34.5700°N, 118.0931°W)
Time: 21:09:29
(UTC-07:00)

A-11 Canister half - Pass Details

Date: 26 April 2024
Orbit: 1525 x 1683 km, 47.3° (Epoch: 23 May)

Event Time Altitude Azimuth Distance (km) Brightness Sun altitude
Exits shadow 03:19:26 37° 168° (SSE) 2,334 9.6 -30.1°
Maximum altitude 03:22:12 44° 131° (SE) 2,131 9.6 -29.7°
Drops below altitude 10° 03:31:28 10° 64° (ENE) 3,921 12.0 -28.3°
Sets 03:34:50 0° 58° (ENE) 4,924 12.9 -27.8°
